| time (UTC) | temp F | wind direction | speed MPH | gust MPH | rain 1hr in | rain 24hr in | rain mn in | humidity % | barometer mb |
| 20260903061655 | 50 | 260 | 21.0 | 28.0 | 0.00 | 0.00 | 0.00 | 87 | |
| 20260903051655 | 50 | 260 | 21.0 | 0.0 | 0.00 | 0.00 | 0.00 | 87 | |
| 20260903042057 | 50 | 270 | 18.0 | 0.0 | 0.00 | 0.00 | 0.00 | 87 | |
| 20260903031655 | 50 | 270 | 16.0 | 0.0 | 0.00 | 0.00 | 0.00 | 87 | |
| 20260903021654 | 52 | 260 | 16.0 | 0.0 | 0.00 | 0.00 | 0.00 | 87 | |
| 20260903011855 | 54 | 250 | 17.0 | 24.0 | 0.00 | 0.00 | 0.00 | 76 | |
| 20260903001656 | 54 | 250 | 15.0 | 0.0 | 0.00 | 0.00 | 0.00 | 76 | |
| 20260902231655 | 54 | 260 | 15.0 | 0.0 | 0.00 | 0.00 | 0.00 | 76 | |
| 20260902222055 | 54 | 270 | 16.0 | 0.0 | 0.00 | 0.00 | 0.00 | 76 | |
| 20260902211655 | 54 | 260 | 15.0 | 0.0 | 0.00 | 0.00 | 0.00 | 76 | |
| 20260902201656 | 54 | 260 | 14.0 | 0.0 | 0.00 | 0.00 | 0.00 | 76 | |
| 20260902191856 | 54 | 230 | 12.0 | 0.0 | 0.00 | 0.00 | 0.00 | 76 | |
| 20260902181655 | 54 | 230 | 12.0 | 0.0 | 0.00 | 0.00 | 0.00 | 76 | |
| 20260902171855 | 55 | 240 | 9.0 | 0.0 | 0.00 | 0.00 | 0.00 | 71 | |
| 20260902162057 | 57 | 240 | 8.0 | 0.0 | 0.00 | 0.00 | 0.00 | 71 | |
| 20260902151654 | 55 | 260 | 8.0 | 0.0 | 0.00 | 0.00 | 0.00 | 71 | |
| 20260902141856 | 57 | 260 | 9.0 | 0.0 | 0.00 | 0.00 | 0.00 | 62 | |
| 20260902131855 | 59 | 260 | 10.0 | 18.0 | 0.00 | 0.00 | 0.00 | 67 | |
| 20260902121655 | 55 | 260 | 9.0 | 0.0 | 0.00 | 0.00 | 0.00 | 71 | |
| 20260902111855 | 55 | 270 | 7.0 | 0.0 | 0.00 | 0.00 | 0.00 | 66 | |
| 20260902101955 | 55 | 270 | 8.0 | 15.0 | 0.00 | 0.00 | 0.00 | 71 | |
| 20260902091655 | 55 | 250 | 9.0 | 0.0 | 0.00 | 0.00 | 0.00 | 66 | |
| 20260902081856 | 54 | 250 | 9.0 | 0.0 | 0.00 | 0.00 | 0.00 | 66 | |
| 20260902071755 | 52 | 260 | 12.0 | 0.0 | 0.00 | 0.00 | 0.00 | 71 |